Year,Month,Day,Hour,Minute,Value (Times are PST for temperature in C)
2019,03,20,00,00,6.30
2019,03,20,00,01,6.30
2019,03,20,00,02,6.30
2019,03,20,00,03,6.30
2019,03,20,00,04,6.30
2019,03,20,00,05,6.30
2019,03,20,00,06,6.30
2019,03,20,00,07,6.30
2019,03,20,00,08,6.30
2019,03,20,00,09,6.30
2019,03,20,00,10,6.40
2019,03,20,00,11,6.40
2019,03,20,00,12,6.40
2019,03,20,00,13,6.50
2019,03,20,00,14,6.50
2019,03,20,00,15,6.50
2019,03,20,00,16,6.60
2019,03,20,00,17,6.60
2019,03,20,00,18,6.60
2019,03,20,00,19,6.60
2019,03,20,00,20,6.60
2019,03,20,00,21,6.60
2019,03,20,00,22,6.60
2019,03,20,00,23,6.50
2019,03,20,00,24,6.50
2019,03,20,00,25,6.40
2019,03,20,00,26,6.40
2019,03,20,00,27,6.30
2019,03,20,00,28,6.30
2019,03,20,00,29,6.30
2019,03,20,00,30,6.30
2019,03,20,00,31,6.20
2019,03,20,00,32,6.20
2019,03,20,00,33,6.20
2019,03,20,00,34,6.20
2019,03,20,00,35,6.10
2019,03,20,00,36,6.10
2019,03,20,00,37,6.10
2019,03,20,00,38,6.00
2019,03,20,00,39,6.00
2019,03,20,00,40,6.00
2019,03,20,00,41,6.00
2019,03,20,00,42,5.90
2019,03,20,00,43,5.90
2019,03,20,00,44,5.90
2019,03,20,00,45,5.90
2019,03,20,00,46,5.80
2019,03,20,00,47,5.80
2019,03,20,00,48,5.80
2019,03,20,00,49,5.80
2019,03,20,00,50,5.80
2019,03,20,00,51,5.70
2019,03,20,00,52,5.70
2019,03,20,00,53,5.70
2019,03,20,00,54,5.70
2019,03,20,00,55,5.60
2019,03,20,00,56,5.60
2019,03,20,00,57,5.60
2019,03,20,00,58,5.60
2019,03,20,00,59,5.60
2019,03,20,01,00,5.60
2019,03,20,01,01,5.60
2019,03,20,01,02,5.60
2019,03,20,01,03,5.60
2019,03,20,01,04,5.60
2019,03,20,01,05,5.60
2019,03,20,01,06,5.50
2019,03,20,01,07,5.50
2019,03,20,01,08,5.50
2019,03,20,01,09,5.40
2019,03,20,01,10,5.40
2019,03,20,01,11,5.40
2019,03,20,01,12,5.30
2019,03,20,01,13,5.30
2019,03,20,01,14,5.30
2019,03,20,01,15,5.30
2019,03,20,01,16,5.30
2019,03,20,01,17,5.20
2019,03,20,01,18,5.20
2019,03,20,01,19,5.20
2019,03,20,01,20,5.20
2019,03,20,01,21,5.20
2019,03,20,01,22,5.20
2019,03,20,01,23,5.20
2019,03,20,01,24,5.20
2019,03,20,01,25,5.20
2019,03,20,01,26,5.20
2019,03,20,01,27,5.20
2019,03,20,01,28,5.20
2019,03,20,01,29,5.20
2019,03,20,01,30,5.20
2019,03,20,01,31,5.20
2019,03,20,01,32,5.10
2019,03,20,01,33,5.10
2019,03,20,01,34,5.10
2019,03,20,01,35,5.10
2019,03,20,01,36,5.10
2019,03,20,01,37,5.10
2019,03,20,01,38,5.10
2019,03,20,01,39,5.10
2019,03,20,01,40,5.10
2019,03,20,01,41,5.10
2019,03,20,01,42,5.10
2019,03,20,01,43,5.10
2019,03,20,01,44,5.10
2019,03,20,01,45,5.10
2019,03,20,01,46,5.20
2019,03,20,01,47,5.30
2019,03,20,01,48,5.40
2019,03,20,01,49,5.40
2019,03,20,01,50,5.40
2019,03,20,01,51,5.40
2019,03,20,01,52,5.40
2019,03,20,01,53,5.40
2019,03,20,01,54,5.40
2019,03,20,01,55,5.40
2019,03,20,01,56,5.50
2019,03,20,01,57,5.50
2019,03,20,01,58,5.50
2019,03,20,01,59,5.40
2019,03,20,02,00,5.40
2019,03,20,02,01,5.40
2019,03,20,02,02,5.40
2019,03,20,02,03,5.40
2019,03,20,02,04,5.40
2019,03,20,02,05,5.40
2019,03,20,02,06,5.50
2019,03,20,02,07,5.50
2019,03,20,02,08,5.50
2019,03,20,02,09,5.50
2019,03,20,02,10,5.60
2019,03,20,02,11,5.60
2019,03,20,02,12,5.70
2019,03,20,02,13,5.80
2019,03,20,02,14,6.00
2019,03,20,02,15,6.10
2019,03,20,02,16,6.20
2019,03,20,02,17,6.30
2019,03,20,02,18,6.30
2019,03,20,02,19,6.30
2019,03,20,02,20,6.30
2019,03,20,02,21,6.30
2019,03,20,02,22,6.30
2019,03,20,02,23,6.30
2019,03,20,02,24,6.20
2019,03,20,02,25,6.20
2019,03,20,02,26,6.20
2019,03,20,02,27,6.20
2019,03,20,02,28,6.10
2019,03,20,02,29,6.10
2019,03,20,02,30,6.10
2019,03,20,02,31,6.00
2019,03,20,02,32,6.00
2019,03,20,02,33,6.00
2019,03,20,02,34,6.00
2019,03,20,02,35,6.00
2019,03,20,02,36,6.00
2019,03,20,02,37,6.00
2019,03,20,02,38,6.10
2019,03,20,02,39,6.10
2019,03,20,02,40,6.10
2019,03,20,02,41,6.10
2019,03,20,02,42,6.10
2019,03,20,02,43,6.10
2019,03,20,02,44,6.10
2019,03,20,02,45,6.10
2019,03,20,02,46,6.10
2019,03,20,02,47,6.10
2019,03,20,02,48,6.10
2019,03,20,02,49,6.20
2019,03,20,02,50,6.20
2019,03,20,02,51,6.30
2019,03,20,02,52,6.30
2019,03,20,02,53,6.30
2019,03,20,02,54,6.30
2019,03,20,02,55,6.20
2019,03,20,02,56,6.20
2019,03,20,02,57,6.10
2019,03,20,02,58,6.10
2019,03,20,02,59,6.10
2019,03,20,03,00,6.10
2019,03,20,03,01,6.00
2019,03,20,03,02,6.00
2019,03,20,03,03,6.00
2019,03,20,03,04,6.00
2019,03,20,03,05,5.90
2019,03,20,03,06,5.90
2019,03,20,03,07,5.90
2019,03,20,03,08,5.90
2019,03,20,03,09,5.90
2019,03,20,03,10,5.80
2019,03,20,03,11,5.80
2019,03,20,03,12,5.70
2019,03,20,03,13,5.70
2019,03,20,03,14,5.70
2019,03,20,03,15,5.70
2019,03,20,03,16,5.60
2019,03,20,03,17,5.60
2019,03,20,03,18,5.60
2019,03,20,03,19,5.50
2019,03,20,03,20,5.50
2019,03,20,03,21,5.40
2019,03,20,03,22,5.40
2019,03,20,03,23,5.30
2019,03,20,03,24,5.30
2019,03,20,03,25,5.20
2019,03,20,03,26,5.20
2019,03,20,03,27,5.20
2019,03,20,03,28,5.10
2019,03,20,03,29,5.10
2019,03,20,03,30,5.10
2019,03,20,03,31,5.00
2019,03,20,03,32,5.00
2019,03,20,03,33,5.00
2019,03,20,03,34,5.00
2019,03,20,03,35,5.00
2019,03,20,03,36,4.90
2019,03,20,03,37,4.90
2019,03,20,03,38,4.90
2019,03,20,03,39,4.90
2019,03,20,03,40,4.90
2019,03,20,03,41,4.80
2019,03,20,03,42,4.80
2019,03,20,03,43,4.80
2019,03,20,03,44,4.80
2019,03,20,03,45,4.80
2019,03,20,03,46,4.80
2019,03,20,03,47,4.80
2019,03,20,03,48,4.80
2019,03,20,03,49,4.80
2019,03,20,03,50,4.70
2019,03,20,03,51,4.60
2019,03,20,03,52,4.70
2019,03,20,03,53,4.70
2019,03,20,03,54,4.70
2019,03,20,03,55,4.70
2019,03,20,03,56,4.80
2019,03,20,03,57,4.80
2019,03,20,03,58,4.80
2019,03,20,03,59,4.80
2019,03,20,04,00,4.80
2019,03,20,04,01,4.80
2019,03,20,04,02,4.80
2019,03,20,04,03,4.90
2019,03,20,04,04,4.80
2019,03,20,04,05,4.90
2019,03,20,04,06,4.90
2019,03,20,04,07,4.90
2019,03,20,04,08,4.90
2019,03,20,04,09,5.00
2019,03,20,04,10,5.00
2019,03,20,04,11,4.90
2019,03,20,04,12,5.00
2019,03,20,04,13,5.10
2019,03,20,04,14,5.10
2019,03,20,04,15,5.20
2019,03,20,04,16,5.20
2019,03,20,04,17,5.30
2019,03,20,04,18,5.30
2019,03,20,04,19,5.30
2019,03,20,04,20,5.30
2019,03,20,04,21,5.30
2019,03,20,04,22,5.20
2019,03,20,04,23,5.20
2019,03,20,04,24,5.20
2019,03,20,04,25,5.20
2019,03,20,04,26,5.20
2019,03,20,04,27,5.30
2019,03,20,04,28,5.30
2019,03,20,04,29,5.30
2019,03,20,04,30,5.40
2019,03,20,04,31,5.40
2019,03,20,04,32,5.40
2019,03,20,04,33,5.40
2019,03,20,04,34,5.40
2019,03,20,04,35,5.40
2019,03,20,04,36,5.30
2019,03,20,04,37,5.30
2019,03,20,04,38,5.30
2019,03,20,04,39,5.20
2019,03,20,04,40,5.20
2019,03,20,04,41,5.20
2019,03,20,04,42,5.20
2019,03,20,04,43,5.20
2019,03,20,04,44,5.20
2019,03,20,04,45,5.20
2019,03,20,04,46,5.20
2019,03,20,04,47,5.10
2019,03,20,04,48,5.10
2019,03,20,04,49,5.10
2019,03,20,04,50,5.00
2019,03,20,04,51,5.00
2019,03,20,04,52,5.00
2019,03,20,04,53,5.00
2019,03,20,04,54,5.00
2019,03,20,04,55,4.90
2019,03,20,04,56,4.90
2019,03,20,04,57,4.90
2019,03,20,04,58,4.90
2019,03,20,04,59,4.90
2019,03,20,05,00,4.90
2019,03,20,05,01,4.90
2019,03,20,05,02,4.90
2019,03,20,05,03,4.90
2019,03,20,05,04,4.90
2019,03,20,05,05,4.90
2019,03,20,05,06,4.90
2019,03,20,05,07,4.90
2019,03,20,05,08,4.90
2019,03,20,05,09,4.90
2019,03,20,05,10,4.80
2019,03,20,05,11,4.80
2019,03,20,05,12,4.80
2019,03,20,05,13,4.80
2019,03,20,05,14,4.80
2019,03,20,05,15,4.80
2019,03,20,05,16,4.80
2019,03,20,05,17,4.80
2019,03,20,05,18,4.80
2019,03,20,05,19,4.80
2019,03,20,05,20,4.80
2019,03,20,05,21,4.80
2019,03,20,05,22,4.80
2019,03,20,05,23,4.80
2019,03,20,05,24,4.90
2019,03,20,05,25,5.10
2019,03,20,05,26,5.20
2019,03,20,05,27,5.40
2019,03,20,05,28,5.50
2019,03,20,05,29,5.50
2019,03,20,05,30,5.60
2019,03,20,05,31,5.50
2019,03,20,05,32,5.50
2019,03,20,05,33,5.50
2019,03,20,05,34,5.50
2019,03,20,05,35,5.50
2019,03,20,05,36,5.40
2019,03,20,05,37,5.40
2019,03,20,05,38,5.40
2019,03,20,05,39,5.40
2019,03,20,05,40,5.40
2019,03,20,05,41,5.40
2019,03,20,05,42,5.40
2019,03,20,05,43,5.40
2019,03,20,05,44,5.40
2019,03,20,05,45,5.40
2019,03,20,05,46,5.50
2019,03,20,05,47,5.70
2019,03,20,05,48,5.80
2019,03,20,05,49,5.90
2019,03,20,05,50,6.00
2019,03,20,05,51,6.10
2019,03,20,05,52,6.20
2019,03,20,05,53,6.20
2019,03,20,05,54,6.20
2019,03,20,05,55,6.20
2019,03,20,05,56,6.20
2019,03,20,05,57,6.20
2019,03,20,05,58,6.20
2019,03,20,05,59,6.20
2019,03,20,06,00,6.10
2019,03,20,06,01,6.10
2019,03,20,06,02,6.00
2019,03,20,06,03,6.00
2019,03,20,06,04,5.90
2019,03,20,06,05,5.90
2019,03,20,06,06,5.80
2019,03,20,06,07,5.80
2019,03,20,06,08,5.70
2019,03,20,06,09,5.70
2019,03,20,06,10,5.60
2019,03,20,06,11,5.60
2019,03,20,06,12,5.50
2019,03,20,06,13,5.50
2019,03,20,06,14,5.50
2019,03,20,06,15,5.50
2019,03,20,06,16,5.60
2019,03,20,06,17,5.60
2019,03,20,06,18,5.60
2019,03,20,06,19,5.60
2019,03,20,06,20,5.60
2019,03,20,06,21,5.70
2019,03,20,06,22,5.70
2019,03,20,06,23,5.70
2019,03,20,06,24,5.80
2019,03,20,06,25,5.80
2019,03,20,06,26,5.90
2019,03,20,06,27,6.00
2019,03,20,06,28,6.10
2019,03,20,06,29,6.10
2019,03,20,06,30,6.30
2019,03,20,06,31,6.40
2019,03,20,06,32,6.60
2019,03,20,06,33,6.80
2019,03,20,06,34,7.00
2019,03,20,06,35,7.20
2019,03,20,06,36,7.20
2019,03,20,06,37,7.40
2019,03,20,06,38,7.40
2019,03,20,06,39,7.50
2019,03,20,06,40,7.60
2019,03,20,06,41,7.70
2019,03,20,06,42,7.80
2019,03,20,06,43,8.00
2019,03,20,06,44,8.00
2019,03,20,06,45,7.90
2019,03,20,06,46,7.90
2019,03,20,06,47,7.80
2019,03,20,06,48,7.80
2019,03,20,06,49,7.60
2019,03,20,06,50,7.60
2019,03,20,06,51,7.60
2019,03,20,06,52,7.60
2019,03,20,06,53,7.60
2019,03,20,06,54,7.70
2019,03,20,06,55,7.70
2019,03,20,06,56,7.80
2019,03,20,06,57,7.90
2019,03,20,06,58,8.00
2019,03,20,06,59,8.30
2019,03,20,07,00,8.50
2019,03,20,07,01,8.60
2019,03,20,07,02,8.70
2019,03,20,07,03,8.70
2019,03,20,07,04,8.60
2019,03,20,07,05,8.60
2019,03,20,07,06,8.70
2019,03,20,07,07,8.80
2019,03,20,07,08,8.80
2019,03,20,07,09,8.90
2019,03,20,07,10,9.00
2019,03,20,07,11,9.30
2019,03,20,07,12,9.40
2019,03,20,07,13,9.50
2019,03,20,07,14,9.60
2019,03,20,07,15,9.60
2019,03,20,07,16,9.60
2019,03,20,07,17,9.60
2019,03,20,07,18,9.50
2019,03,20,07,19,9.40
2019,03,20,07,20,9.40
2019,03,20,07,21,9.30
2019,03,20,07,22,9.30
2019,03,20,07,23,9.50
2019,03,20,07,24,9.70
2019,03,20,07,25,9.70
2019,03,20,07,26,9.80
2019,03,20,07,27,9.70
2019,03,20,07,28,9.60
2019,03,20,07,29,9.50
2019,03,20,07,30,9.50
2019,03,20,07,31,9.40
2019,03,20,07,32,9.50
2019,03,20,07,33,9.60
2019,03,20,07,34,9.70
2019,03,20,07,35,9.80
2019,03,20,07,36,9.80
2019,03,20,07,37,9.80
2019,03,20,07,38,9.90
2019,03,20,07,39,9.90
2019,03,20,07,40,10.00
2019,03,20,07,41,10.00
2019,03,20,07,42,10.10
2019,03,20,07,43,10.10
2019,03,20,07,44,10.10
2019,03,20,07,45,10.10
2019,03,20,07,46,10.10
2019,03,20,07,47,10.20
2019,03,20,07,48,10.30
2019,03,20,07,49,10.30
2019,03,20,07,50,10.30
2019,03,20,07,51,10.30
2019,03,20,07,52,10.20
2019,03,20,07,53,10.10
2019,03,20,07,54,10.10
2019,03,20,07,55,10.10
2019,03,20,07,56,10.20
2019,03,20,07,57,10.20
2019,03,20,07,58,10.30
2019,03,20,07,59,10.30
2019,03,20,08,00,10.30
2019,03,20,08,01,10.30
2019,03,20,08,02,10.30
2019,03,20,08,03,10.30
2019,03,20,08,04,10.20
2019,03,20,08,05,10.10
2019,03,20,08,06,10.00
2019,03,20,08,07,9.90
2019,03,20,08,08,9.90
2019,03,20,08,09,9.80
2019,03,20,08,10,9.90
2019,03,20,08,11,9.80
2019,03,20,08,12,9.80
2019,03,20,08,13,9.80
2019,03,20,08,14,10.00
2019,03,20,08,15,10.00
2019,03,20,08,16,10.10
2019,03,20,08,17,10.20
2019,03,20,08,18,10.30
2019,03,20,08,19,10.30
2019,03,20,08,20,10.40
2019,03,20,08,21,10.40
2019,03,20,08,22,10.40
2019,03,20,08,23,10.30
2019,03,20,08,24,10.20
2019,03,20,08,25,10.10
2019,03,20,08,26,10.00
2019,03,20,08,27,9.90
2019,03,20,08,28,9.90
2019,03,20,08,29,9.80
2019,03,20,08,30,9.80
2019,03,20,08,31,9.80
2019,03,20,08,32,9.70
2019,03,20,08,33,9.70
2019,03,20,08,34,9.70
2019,03,20,08,35,9.70
2019,03,20,08,36,9.80
2019,03,20,08,37,10.00
2019,03,20,08,38,10.10
2019,03,20,08,39,10.20
2019,03,20,08,40,10.40
2019,03,20,08,41,10.50
2019,03,20,08,42,10.60
2019,03,20,08,43,10.80
2019,03,20,08,44,10.80
2019,03,20,08,45,10.90
2019,03,20,08,46,11.00
2019,03,20,08,47,11.00
2019,03,20,08,48,11.10
2019,03,20,08,49,11.30
2019,03,20,08,50,11.30
2019,03,20,08,51,11.40
2019,03,20,08,52,11.50
2019,03,20,08,53,11.50
2019,03,20,08,54,11.50
2019,03,20,08,55,11.50
2019,03,20,08,56,11.50
2019,03,20,08,57,11.50
2019,03,20,08,58,11.40
2019,03,20,08,59,11.40
2019,03,20,09,00,11.60
2019,03,20,09,01,11.70
2019,03,20,09,02,11.80
2019,03,20,09,03,11.80
2019,03,20,09,04,11.90
2019,03,20,09,05,11.90
2019,03,20,09,06,12.10
2019,03,20,09,07,12.20
2019,03,20,09,08,12.20
2019,03,20,09,09,12.30
2019,03,20,09,10,12.50
2019,03,20,09,11,12.60
2019,03,20,09,12,12.80
2019,03,20,09,13,12.90
2019,03,20,09,14,13.00
2019,03,20,09,15,13.10
2019,03,20,09,16,13.20
2019,03,20,09,17,13.20
2019,03,20,09,18,13.30
2019,03,20,09,19,13.30
2019,03,20,09,20,13.40
2019,03,20,09,21,13.50
2019,03,20,09,22,13.60
2019,03,20,09,23,13.70
2019,03,20,09,24,13.70
2019,03,20,09,25,13.80
2019,03,20,09,26,13.90
2019,03,20,09,27,14.00
2019,03,20,09,28,14.00
2019,03,20,09,29,14.10
2019,03,20,09,30,14.10
2019,03,20,09,31,14.10
2019,03,20,09,32,14.20
2019,03,20,09,33,14.20
2019,03,20,09,34,14.20
2019,03,20,09,35,14.20
2019,03,20,09,36,14.30
2019,03,20,09,37,14.30
2019,03,20,09,38,14.30
2019,03,20,09,39,14.40
2019,03,20,09,40,14.40
2019,03,20,09,41,14.40
2019,03,20,09,42,14.40
2019,03,20,09,43,14.50
2019,03,20,09,44,14.60
2019,03,20,09,45,14.60
2019,03,20,09,46,14.60
2019,03,20,09,47,14.70
2019,03,20,09,48,14.70
2019,03,20,09,49,14.70
2019,03,20,09,50,14.70
2019,03,20,09,51,14.70
2019,03,20,09,52,14.80
2019,03,20,09,53,14.80
2019,03,20,09,54,14.80
2019,03,20,09,55,14.90
2019,03,20,09,56,14.90
2019,03,20,09,57,14.80
2019,03,20,09,58,14.80
2019,03,20,09,59,14.70
2019,03,20,10,00,14.60
2019,03,20,10,01,14.60
2019,03,20,10,02,14.60
2019,03,20,10,03,14.60
2019,03,20,10,04,14.60
2019,03,20,10,05,14.60
2019,03,20,10,06,14.60
2019,03,20,10,07,14.70
2019,03,20,10,08,14.70
2019,03,20,10,09,14.80
2019,03,20,10,10,14.80
2019,03,20,10,11,14.90
2019,03,20,10,12,15.00
2019,03,20,10,13,15.00
2019,03,20,10,14,15.00
2019,03,20,10,15,15.00
2019,03,20,10,16,15.00
2019,03,20,10,17,15.00
2019,03,20,10,18,15.00
2019,03,20,10,19,15.00
2019,03,20,10,20,15.00
2019,03,20,10,21,15.00
2019,03,20,10,22,15.00
2019,03,20,10,23,15.00
2019,03,20,10,24,15.00
2019,03,20,10,25,15.00
2019,03,20,10,26,15.00
2019,03,20,10,27,15.00
2019,03,20,10,28,15.00
2019,03,20,10,29,15.00
2019,03,20,10,30,15.00
2019,03,20,10,31,15.00
2019,03,20,10,32,15.00
2019,03,20,10,33,15.00
2019,03,20,10,34,15.00
2019,03,20,10,35,15.10
2019,03,20,10,36,15.10
2019,03,20,10,37,15.20
2019,03,20,10,38,15.20
2019,03,20,10,39,15.20
2019,03,20,10,40,15.20
2019,03,20,10,41,15.20
2019,03,20,10,42,15.20
2019,03,20,10,43,15.20
2019,03,20,10,44,15.20
2019,03,20,10,45,15.20
2019,03,20,10,46,15.10
2019,03,20,10,47,15.10
2019,03,20,10,48,15.10
2019,03,20,10,49,15.10
2019,03,20,10,50,15.10
2019,03,20,10,51,15.10
2019,03,20,10,52,15.10
2019,03,20,10,53,15.20
2019,03,20,10,54,15.20
2019,03,20,10,55,15.20
2019,03,20,10,56,15.20
2019,03,20,10,57,15.30
2019,03,20,10,58,15.30
2019,03,20,10,59,15.30
2019,03,20,11,00,15.40
2019,03,20,11,01,15.40
2019,03,20,11,02,15.50
2019,03,20,11,03,15.50
2019,03,20,11,04,15.60
2019,03,20,11,05,15.70
2019,03,20,11,06,15.80
2019,03,20,11,07,15.80
2019,03,20,11,08,15.80
2019,03,20,11,09,15.80
2019,03,20,11,10,15.90
2019,03,20,11,11,15.90
2019,03,20,11,12,15.90
2019,03,20,11,13,15.90
2019,03,20,11,14,16.00
2019,03,20,11,15,16.00
2019,03,20,11,16,16.10
2019,03,20,11,17,16.10
2019,03,20,11,18,16.10
2019,03,20,11,19,16.10
2019,03,20,11,20,16.20
2019,03,20,11,21,16.20
2019,03,20,11,22,16.20
2019,03,20,11,23,16.20
2019,03,20,11,24,16.20
2019,03,20,11,25,16.10
2019,03,20,11,26,16.10
2019,03,20,11,27,16.00
2019,03,20,11,28,15.90
2019,03,20,11,29,15.80
2019,03,20,11,30,15.80
2019,03,20,11,31,15.70
2019,03,20,11,32,15.60
2019,03,20,11,33,15.60
2019,03,20,11,34,15.60
2019,03,20,11,35,15.60
2019,03,20,11,36,15.60
2019,03,20,11,37,15.70
2019,03,20,11,38,15.70
2019,03,20,11,39,15.80
2019,03,20,11,40,15.90
2019,03,20,11,41,16.00
2019,03,20,11,42,16.10
2019,03,20,11,43,16.20
2019,03,20,11,44,16.30
2019,03,20,11,45,16.30
2019,03,20,11,46,16.40
2019,03,20,11,47,16.50
2019,03,20,11,48,16.60
2019,03,20,11,49,16.70
2019,03,20,11,50,16.70
2019,03,20,11,51,16.70
2019,03,20,11,52,16.70
2019,03,20,11,53,16.80
2019,03,20,11,54,16.80
2019,03,20,11,55,16.80
2019,03,20,11,56,16.80
2019,03,20,11,57,16.80
2019,03,20,11,58,16.90
2019,03,20,11,59,16.90
2019,03,20,12,00,17.00
2019,03,20,12,01,17.10
2019,03,20,12,02,17.10
2019,03,20,12,03,17.20
2019,03,20,12,04,17.20
2019,03,20,12,05,17.10
2019,03,20,12,06,17.10
2019,03,20,12,07,17.20
2019,03,20,12,08,17.20
2019,03,20,12,09,17.20
2019,03,20,12,10,17.20
2019,03,20,12,11,17.20
2019,03,20,12,12,17.20
2019,03,20,12,13,17.20
2019,03,20,12,14,17.20
2019,03,20,12,15,17.20
2019,03,20,12,16,17.10
2019,03,20,12,17,17.20
2019,03,20,12,18,17.20
2019,03,20,12,19,17.10
2019,03,20,12,20,17.10
2019,03,20,12,21,17.10
2019,03,20,12,22,17.10
2019,03,20,12,23,17.10
2019,03,20,12,24,17.10
2019,03,20,12,25,17.20
2019,03,20,12,26,17.20
2019,03,20,12,27,17.20
2019,03,20,12,28,17.20
2019,03,20,12,29,17.20
2019,03,20,12,30,17.20
2019,03,20,12,31,17.20
2019,03,20,12,32,17.20
2019,03,20,12,33,17.20
2019,03,20,12,34,17.20
2019,03,20,12,35,17.20
2019,03,20,12,36,17.10
2019,03,20,12,37,17.10
2019,03,20,12,38,17.10
2019,03,20,12,39,17.10
2019,03,20,12,40,17.10
2019,03,20,12,41,17.20
2019,03,20,12,42,17.20
2019,03,20,12,43,17.20
2019,03,20,12,44,17.20
2019,03,20,12,45,17.30
2019,03,20,12,46,17.30
2019,03,20,12,47,17.30
2019,03,20,12,48,17.30
2019,03,20,12,49,17.30
2019,03,20,12,50,17.30
2019,03,20,12,51,17.30
2019,03,20,12,52,17.30
2019,03,20,12,53,17.30
2019,03,20,12,54,17.30
2019,03,20,12,55,17.30
2019,03,20,12,56,17.30
2019,03,20,12,57,17.30
2019,03,20,12,58,17.30
2019,03,20,12,59,17.30
2019,03,20,13,00,17.40
2019,03,20,13,01,17.40
2019,03,20,13,02,17.40
2019,03,20,13,03,17.50
2019,03,20,13,04,17.50
2019,03,20,13,05,17.60
2019,03,20,13,06,17.60
2019,03,20,13,07,17.70
2019,03,20,13,08,17.70
2019,03,20,13,09,17.80
2019,03,20,13,10,17.80
2019,03,20,13,11,17.90
2019,03,20,13,12,17.90
2019,03,20,13,13,18.00
2019,03,20,13,14,18.10
2019,03,20,13,15,18.10
2019,03,20,13,16,18.10
2019,03,20,13,17,18.10
2019,03,20,13,18,18.00
2019,03,20,13,19,18.00
2019,03,20,13,20,17.90
2019,03,20,13,21,17.90
2019,03,20,13,22,17.90
2019,03,20,13,23,18.00
2019,03,20,13,24,18.00
2019,03,20,13,25,18.10
2019,03,20,13,26,18.10
2019,03,20,13,27,18.00
2019,03,20,13,28,18.10
2019,03,20,13,29,18.00
2019,03,20,13,30,18.00
2019,03,20,13,31,18.00
2019,03,20,13,32,17.90
2019,03,20,13,33,17.90
2019,03,20,13,34,17.90
2019,03,20,13,35,17.90
2019,03,20,13,36,17.90
2019,03,20,13,37,18.00
2019,03,20,13,38,18.00
2019,03,20,13,39,18.00
2019,03,20,13,40,18.10
2019,03,20,13,41,18.10
2019,03,20,13,42,18.10
2019,03,20,13,43,18.20
2019,03,20,13,44,18.20
2019,03,20,13,45,18.30
2019,03,20,13,46,18.30
2019,03,20,13,47,18.30
2019,03,20,13,48,18.30
2019,03,20,13,49,18.30
2019,03,20,13,50,18.30
2019,03,20,13,51,18.20
2019,03,20,13,52,18.20
2019,03,20,13,53,18.30
2019,03,20,13,54,18.30
2019,03,20,13,55,18.30
2019,03,20,13,56,18.30
2019,03,20,13,57,18.30
2019,03,20,13,58,18.30
2019,03,20,13,59,18.30
2019,03,20,14,00,18.40
2019,03,20,14,01,18.40
2019,03,20,14,02,18.40
2019,03,20,14,03,18.40
2019,03,20,14,04,18.40
2019,03,20,14,05,18.40
2019,03,20,14,06,18.40
2019,03,20,14,07,18.40
2019,03,20,14,08,18.40
2019,03,20,14,09,18.40
2019,03,20,14,10,18.40
2019,03,20,14,11,18.50
2019,03,20,14,12,18.50
2019,03,20,14,13,18.60
2019,03,20,14,14,18.60
2019,03,20,14,15,18.60
2019,03,20,14,16,18.60
2019,03,20,14,17,18.60
2019,03,20,14,18,18.60
2019,03,20,14,19,18.60
2019,03,20,14,20,18.70
2019,03,20,14,21,18.70
2019,03,20,14,22,18.70
2019,03,20,14,23,18.80
2019,03,20,14,24,18.80
2019,03,20,14,25,18.80
2019,03,20,14,26,18.80
2019,03,20,14,27,18.80
2019,03,20,14,28,18.80
2019,03,20,14,29,18.80
2019,03,20,14,30,18.90
2019,03,20,14,31,18.80
2019,03,20,14,32,18.80
2019,03,20,14,33,18.70
2019,03,20,14,34,18.70
2019,03,20,14,35,18.70
2019,03,20,14,36,18.70
2019,03,20,14,37,18.70
2019,03,20,14,38,18.70
2019,03,20,14,39,18.70
2019,03,20,14,40,18.70
2019,03,20,14,41,18.70
2019,03,20,14,42,18.70
2019,03,20,14,43,18.80
2019,03,20,14,44,18.80
2019,03,20,14,45,18.90
2019,03,20,14,46,19.00
2019,03,20,14,47,19.00
2019,03,20,14,48,19.10
2019,03,20,14,49,19.10
2019,03,20,14,50,19.10
2019,03,20,14,51,19.10
2019,03,20,14,52,19.20
2019,03,20,14,53,19.20
2019,03,20,14,54,19.30
2019,03,20,14,55,19.40
2019,03,20,14,56,19.40
2019,03,20,14,57,19.50
2019,03,20,14,58,19.60
2019,03,20,14,59,19.60
2019,03,20,15,00,19.60
2019,03,20,15,01,19.60
2019,03,20,15,02,19.70
2019,03,20,15,03,19.70
2019,03,20,15,04,19.70
2019,03,20,15,05,19.70
2019,03,20,15,06,19.80
2019,03,20,15,07,19.80
2019,03,20,15,08,19.80
2019,03,20,15,09,19.80
2019,03,20,15,10,19.80
2019,03,20,15,11,19.80
2019,03,20,15,12,19.80
2019,03,20,15,13,19.80
2019,03,20,15,14,19.80
2019,03,20,15,15,19.80
2019,03,20,15,16,19.80
2019,03,20,15,17,19.90
2019,03,20,15,18,19.90
2019,03,20,15,19,19.90
2019,03,20,15,20,19.90
2019,03,20,15,21,19.90
2019,03,20,15,22,19.90
2019,03,20,15,23,19.90
2019,03,20,15,24,19.90
2019,03,20,15,25,19.90
2019,03,20,15,26,19.80
2019,03,20,15,27,19.80
2019,03,20,15,28,19.80
2019,03,20,15,29,19.80
2019,03,20,15,30,19.80
2019,03,20,15,31,19.80
2019,03,20,15,32,19.80
2019,03,20,15,33,19.80
2019,03,20,15,34,19.80
2019,03,20,15,35,19.80
2019,03,20,15,36,19.90
2019,03,20,15,37,19.90
2019,03,20,15,38,19.90
2019,03,20,15,39,19.80
2019,03,20,15,40,19.80
2019,03,20,15,41,19.80
2019,03,20,15,42,19.80
2019,03,20,15,43,19.80
2019,03,20,15,44,19.80
2019,03,20,15,45,19.80
2019,03,20,15,46,19.80
2019,03,20,15,47,19.90
2019,03,20,15,48,19.90
2019,03,20,15,49,19.90
2019,03,20,15,50,19.90
2019,03,20,15,51,19.90
2019,03,20,15,52,19.90
2019,03,20,15,53,19.90
2019,03,20,15,54,19.80
2019,03,20,15,55,19.80
2019,03,20,15,56,19.80
2019,03,20,15,57,19.80
2019,03,20,15,58,19.90
2019,03,20,15,59,19.90
2019,03,20,16,00,19.90
2019,03,20,16,01,19.90
2019,03,20,16,02,19.90
2019,03,20,16,03,19.90
2019,03,20,16,04,19.90
2019,03,20,16,05,20.00
2019,03,20,16,06,20.00
2019,03,20,16,07,20.10
2019,03,20,16,08,20.10
2019,03,20,16,09,20.10
2019,03,20,16,10,20.10
2019,03,20,16,11,20.20
2019,03,20,16,12,20.20
2019,03,20,16,13,20.20
2019,03,20,16,14,20.20
2019,03,20,16,15,20.20
2019,03,20,16,16,20.20
2019,03,20,16,17,20.20
2019,03,20,16,18,20.20
2019,03,20,16,19,20.20
2019,03,20,16,20,20.30
2019,03,20,16,21,20.30
2019,03,20,16,22,20.30
2019,03,20,16,23,20.30
2019,03,20,16,24,20.30
2019,03,20,16,25,20.30
2019,03,20,16,26,20.30
2019,03,20,16,27,20.30
2019,03,20,16,28,20.30
2019,03,20,16,29,20.30
2019,03,20,16,30,20.30
2019,03,20,16,31,20.30
2019,03,20,16,32,20.30
2019,03,20,16,33,20.30
2019,03,20,16,34,20.30
2019,03,20,16,35,20.30
2019,03,20,16,36,20.30
2019,03,20,16,37,20.20
2019,03,20,16,38,20.20
2019,03,20,16,39,20.20
2019,03,20,16,40,20.20
2019,03,20,16,41,20.20
2019,03,20,16,42,20.20
2019,03,20,16,43,20.20
2019,03,20,16,44,20.20
2019,03,20,16,45,20.20
2019,03,20,16,46,20.20
2019,03,20,16,47,20.30
2019,03,20,16,48,20.30
2019,03,20,16,49,20.30
2019,03,20,16,50,20.30
2019,03,20,16,51,20.30
2019,03,20,16,52,20.30
2019,03,20,16,53,20.30
2019,03,20,16,54,20.30
2019,03,20,16,55,20.30
2019,03,20,16,56,20.30
2019,03,20,16,57,20.30
2019,03,20,16,58,20.30
2019,03,20,16,59,20.30
2019,03,20,17,00,20.30
2019,03,20,17,01,20.30
2019,03,20,17,02,20.30
2019,03,20,17,03,20.30
2019,03,20,17,04,20.30
2019,03,20,17,05,20.30
2019,03,20,17,06,20.30
2019,03,20,17,07,20.20
2019,03,20,17,08,20.20
2019,03,20,17,09,20.20
2019,03,20,17,10,20.20
2019,03,20,17,11,20.20
2019,03,20,17,12,20.20
2019,03,20,17,13,20.20
2019,03,20,17,14,20.20
2019,03,20,17,15,20.20
2019,03,20,17,16,20.20
2019,03,20,17,17,20.10
2019,03,20,17,18,20.10
2019,03,20,17,19,20.10
2019,03,20,17,20,20.10
2019,03,20,17,21,20.10
2019,03,20,17,22,20.10
2019,03,20,17,23,20.10
2019,03,20,17,24,20.10
2019,03,20,17,25,20.10
2019,03,20,17,26,20.10
2019,03,20,17,27,20.10
2019,03,20,17,28,20.10
2019,03,20,17,29,20.10
2019,03,20,17,30,20.00
2019,03,20,17,31,20.00
2019,03,20,17,32,19.90
2019,03,20,17,33,19.70
2019,03,20,17,34,19.70
2019,03,20,17,35,19.60
2019,03,20,17,36,19.50
2019,03,20,17,37,19.40
2019,03,20,17,38,19.30
2019,03,20,17,39,19.30
2019,03,20,17,40,19.30